Flag for Germany Weather past 2 weeks in Weißenfels, Saxony-Anhalt, Germany

Now
41 °F

Overcast.


Feels Like: 37 °F
Forecast: 36 / 62 °F
Wind: 6 mph from Northwest

Location: Leipzig-Schkeuditz

Current Time: Apr 22, 2015 at 4:27:01 AM

Latest Report: Apr 22, 2015 at 4:00 AM


Visibility: 9 mi

Pressure: 30.33 "Hg

Humidity: 87%

Dew point: 38 °F

Location of WeißenfelsLocation

Historic Weather in Weißenfels — Graph

°F

Weißenfels temperature yesterday

Maximum temperature yesterday: 68 °F (at 3:00 PM)
Minimum temperature yesterday: 38 °F (at 6:00 AM)
Average temperature yesterday: 55 °F

Past Weeks' High & Low Weather Summary

 TemperatureHumidityPressure
High73 °F (Apr 15, 4:00 PM)95% (Apr 18, 7:00 AM)30.61 "Hg (Apr 18, 7:00 AM)
Low29 °F (Apr 7, 7:00 AM)19% (Apr 21, 4:00 PM)29.87 "Hg (Apr 15, 8:00 PM)
Average50 °F61%30.24 "Hg
* Reported Apr 7 3:00 AM — Apr 22 3:00 AM, Weißenfels, Weather by CustomWeather, © 2015

Note: Actual official high and low records may vary slightly from our data, if they occured in-between our weather recording intervals... More about our weather records

Advertising

Weißenfels weather history for previous 24 hours

 ConditionsComfort  
Time TempWeatherWind HumidityBarometerVisibility
3:00 AM
Wed, Apr 22
41 °FPassing clouds.5 mph83%30.34 "Hg22 mi
2:00 AM44 °FPassing clouds.6 mph69%30.34 "Hg28 mi
1:00 AM46 °FClear.5 mph59%30.33 "Hg37 mi
12:00 AM47 °FPassing clouds.3 mph48%30.33 "Hg37 mi
10:00 PM
Tue, Apr 21
56 °FPassing clouds.5 mph39%30.31 "Hg43 mi
9:00 PM59 °FPassing clouds.5 mph37%30.29 "Hg43 mi
8:00 PM62 °FPassing clouds.5 mph33%30.27 "Hg43 mi
7:00 PM65 °FPassing clouds.6 mph30%30.25 "Hg37 mi
6:00 PM67 °FPassing clouds.7 mph25%30.25 "Hg37 mi
5:00 PM68 °FScattered clouds.8 mph24%30.26 "Hg43 mi
4:00 PM67 °FPartly sunny.10 mph19%30.27 "Hg43 mi
3:00 PM68 °FScattered clouds.8 mph20%30.27 "Hg43 mi
2:00 PM67 °FScattered clouds.8 mph24%30.29 "Hg43 mi
1:00 PM66 °FPartly sunny.8 mph25%30.31 "Hg43 mi
12:00 PM64 °FPartly sunny.6 mph29%30.33 "Hg43 mi
10:00 AM56 °FScattered clouds.5 mph48%30.35 "Hg40 mi
9:00 AM50 °FScattered clouds.5 mph67%30.35 "Hg37 mi
8:00 AM45 °FScattered clouds.5 mph77%30.36 "Hg37 mi
7:00 AM38 °FScattered clouds.5 mph85%30.37 "Hg37 mi
6:00 AM38 °FPassing clouds.2 mph82%30.36 "Hg31 mi
4:00 AM39 °FClear.2 mph78%30.37 "Hg31 mi
Weather by CustomWeather, © 2015

See weather overviewHow to use our weather pages